Location: Habighorst
(52.7089°N, 10.2278°E)
Time: 05:40:18
(UTC+00:00)

Sich 1 - Pass Details

Date: 13 January 2026
Orbit: 572 x 598 km, 82.5° (Epoch: 18 February)

Event Time Altitude Azimuth Distance (km) Brightness Sun altitude
Rises 05:58:11 0° 220° (SW) 2,807 6.2 -12.5°
Reaches altitude 10° 06:00:39 10° 233° (SW) 1,906 5.2 -12.1°
Maximum altitude 06:04:14 27° 292° (WNW) 1,142 3.8 -11.6°
Drops below altitude 10° 06:07:50 10° 351° (N) 1,906 5.3 -11.1°
Sets 06:10:19 0° 4° (N) 2,806 6.2 -10.8°
